Location: Newark
(45.1000°N, 8.5833°E)
Time: 10:43:04
(UTC+00:00)

ISS - Pass Details

Date: 20 September 2019
Orbit: 411 x 421 km, 51.6° (Epoch: 16 October)

Event Time Altitude Azimuth Distance (km) Brightness Sun altitude
Rises 19:22:26 0° 240° (WSW) 2,334 0.6 -20.5°
Reaches altitude 10° 19:24:31 10° 241° (WSW) 1,475 -0.5 -20.8°
Enters shadow 19:27:16 59° 247° (WSW) 480 -3.4 -21.3°
